Flag for U.S.A. Weather past 2 weeks in Hopkinsville, Kentucky, U.S.A.

Now
72 °F

Passing clouds.


Feels Like: 70 °F
Forecast: 65 / 84 °F
Wind: 9 mph from Southwest

Location: Fort Campbell U. S. Army Airfield

Current Time: May 27, 2015 at 8:12:59 AM

Latest Report: May 27, 2015 at 7:58 AM


Visibility: 10 mi

Pressure: 30.13 "Hg

Humidity: 86%

Dew point: 67 °F

Location of HopkinsvilleLocation

Historic Weather in Hopkinsville — Graph

°F

Hopkinsville temperature yesterday

Maximum temperature yesterday: 80 °F (at 3:58 PM)
Minimum temperature yesterday: 67 °F (at 5:58 AM)
Average temperature yesterday: 72 °F

Past Weeks' High & Low Weather Summary

 TemperatureHumidityPressure
High84 °F (May 15, 1:58 PM)100% (May 16, 7:59 AM)30.37 "Hg (May 16, 7:59 AM)
Low44 °F (May 22, 3:58 AM)32% (May 23, 3:58 PM)29.92 "Hg (May 20, 5:58 PM)
Average67 °F76%30.14 "Hg
* Reported May 12 5:58 AM — May 27 5:58 AM, Hopkinsville, Weather by CustomWeather, © 2015

Note: Actual official high and low records may vary slightly from our data, if they occured in-between our weather recording intervals... More about our weather records

Advertising

Hopkinsville weather history for previous 24 hours

 ConditionsComfort  
Time TempWeatherWind HumidityBarometerVisibility
5:58 AM
Wed, May 27
66 °FSunny.5 mph97%30.11 "Hg10 mi
4:58 AM66 °FClear.5 mph96%30.09 "Hg10 mi
3:58 AM66 °FClear.6 mph95%30.07 "Hg10 mi
2:58 AM67 °FClear.5 mph95%30.06 "Hg10 mi
1:58 AM67 °FClear.6 mph95%30.05 "Hg10 mi
12:58 AM68 °FClear.6 mph92%30.06 "Hg10 mi
11:58 PM
Tue, May 26
69 °FClear.3 mph88%30.10 "Hg10 mi
10:58 PM69 °FClear.5 mph87%30.09 "Hg10 mi
9:58 PM70 °FClear.3 mph86%30.07 "Hg10 mi
8:58 PM70 °FClear.3 mph83%30.04 "Hg10 mi
7:58 PM74 °FPassing clouds.5 mph74%30.02 "Hg10 mi
6:58 PM76 °FScattered clouds.8 mph70%30.01 "Hg10 mi
5:58 PM78 °FPartly sunny.13 mph64%30.00 "Hg10 mi
4:58 PM79 °FScattered clouds.14 mph64%30.00 "Hg10 mi
3:58 PM80 °FPassing clouds.20 mph60%29.99 "Hg7 mi
2:58 PM80 °FScattered clouds.10 mph68%29.99 "Hg10 mi
1:58 PM79 °FBroken clouds.16 mph68%30.01 "Hg9 mi
12:58 PM75 °FScattered clouds.13 mph78%30.03 "Hg9 mi
11:58 AM75 °FPartly sunny.16 mph81%30.05 "Hg9 mi
10:58 AM75 °FScattered clouds.16 mph79%30.04 "Hg9 mi
9:58 AM74 °FPartly sunny.13 mph82%30.01 "Hg9 mi
8:59 AM73 °FPartly sunny.14 mph83%30.02 "Hg8 mi
Weather by CustomWeather, © 2015

See weather overviewHow to use our weather pages